This demonstration page uses our WeatherBlox Daily Observations layout. Learn more.

Left ArrowRight Arrow

34.02893, -84.19858

Hourly Observations for February 24, 2021

Temp ( °F °C ) Dew Point ( °F °C ) Humidity (%) Winds ( mph kmh ) Pressure ( in mb ) Visibility ( mi km ) Precip ( " mm )
12:53 am 00:53 Clear 38 3.3 33 0.6 83 83 Calm 30.09 1019 10 16 0.00 0.00
1:53 am 01:53 Clear 39 3.9 34 1.1 82 82 Calm 30.08 1019 10 16 0.00 0.00
2:53 am 02:53 Clear 39 3.9 34 1.1 82 82 Calm 30.09 1019 10 16 0.00 0.00
3:53 am 03:53 Clear 37 2.8 33 0.6 86 86 Calm 30.09 1019 10 16 0.00 0.00
4:53 am 04:53 Clear 36 2.2 33 0.6 89 89 Calm 30.11 1020 10 16 0.00 0.00
5:53 am 05:53 Clear 36 2.2 33 0.6 89 89 Calm 30.13 1020 10 16 0.00 0.00
6:53 am 06:53 Clear 35 1.7 33 0.6 93 93 Calm 30.14 1021 10 16 0.00 0.00
7:53 am 07:53 Sunny 38 3.3 35 1.7 89 89 Calm 30.16 1021 10 16 0.00 0.00
8:53 am 08:53 Sunny 48 8.9 39 3.9 71 71 Calm 30.18 1022 10 16 0.00 0.00
9:53 am 09:53 Sunny 57 13.9 35 1.7 44 44 W 5 7 30.17 1022 10 16 0.00 0.00
10:53 am 10:53 Sunny 63 17.2 34 1.1 34 34 W 8 13 30.16 1021 10 16 0.00 0.00
11:53 am 11:53 Sunny 67 19.4 34 1.1 30 30 SSW 12 19 30.14 1021 10 16 0.00 0.00
12:53 pm 12:53 Sunny 69 20.6 33 0.6 26 26 SW 14 22 30.11 1020 10 16 0.00 0.00
1:53 pm 13:53 Sunny 70 21.1 31 -0.6 23 23 SW 13 20 30.06 1018 10 16 0.00 0.00
2:53 pm 14:53 Sunny 70 21.1 30 -1.1 23 23 VRB 7 11 30.05 1018 10 16 0.00 0.00
3:53 pm 15:53 Sunny 70 21.1 33 0.6 26 26 SSW 14 22 30.04 1017 10 16 0.00 0.00
4:53 pm 16:53 Sunny 70 21.1 33 0.6 26 26 SSW 8 13 30.04 1017 10 16 0.00 0.00
5:53 pm 17:53 Sunny 66 18.9 33 0.6 29 29 SW 9 15 30.05 1018 10 16 0.00 0.00
6:53 pm 18:53 Clear 59 15 33 0.6 38 38 SSW 6 9 30.06 1018 10 16 0.00 0.00
7:53 pm 19:53 Clear 60 15.6 32 0 35 35 SW 3 6 30.08 1019 10 16 0.00 0.00
8:53 pm 20:53 Clear 59 15 31 -0.6 35 35 SW 5 7 30.08 1019 10 16 0.00 0.00
9:53 pm 21:53 Clear 52 11.1 33 0.6 49 49 Calm 30.09 1019 10 16 0.00 0.00
10:53 pm 22:53 Clear 49 9.4 33 0.6 55 55 Calm 30.10 1019 10 16 0.00 0.00
11:53 pm 23:53 Clear 47 8.3 34 1.1 61 61 Calm 30.10 1019 10 16 0.00 0.00

Powered by AerisWeather